Home   Weather   Pittsfield   Past weeks
Flag for USA

Past Weather in Pittsfield, Massachusetts, USA — Yesterday and Last 2 Weeks

Now
31 °F

Clear.


Feels Like: 25 °F
Forecast: 48 / 22 °F
Wind: 6 mph from Southwest

Location: Pittsfield Municipal Airport

Current Time: Mar 19, 2019 at 9:24:20 pm

Latest Report: Mar 19, 2019 at 8:54 pm


Visibility: 10 mi

Pressure: 30.37 "Hg

Humidity: 54%

Dew Point: 16 °F

Location of PittsfieldLocation

Past Weather in Pittsfield — Graph

°F

Pittsfield Temperature Yesterday

Maximum temperature yesterday: 38 °F (at 3:54 pm)
Minimum temperature yesterday: 22 °F (at 1:54 am)
Average temperature yesterday: 30 °F

High & Low Weather Summary for the Past Weeks

 TemperatureHumidityPressure
High64 °F (Mar 15, 3:54 pm)92% (Mar 11, 1:54 am)30.38 "Hg (Mar 11, 1:54 am)
Low3 °F (Mar 7, 6:54 am)27% (Mar 18, 3:54 pm)29.58 "Hg (Mar 15, 6:54 pm)
Average29 °F59%30.08 "Hg
* Reported Mar 4 6:54 pm — Mar 19 7:54 pm, Pittsfield. Weather by CustomWeather, © 2019

Note: Actual official high and low records may vary slightly from our data, if they occured in-between our weather recording intervals... More about our weather records

Advertising

Pittsfield Weather History for the Previous 24 Hours

Scroll right to see more
 ConditionsComfort  
Time TempWeatherWind HumidityBarometerVisibility
7:54 pm
Tue, Mar 19
33 °FClear.9 mph49%30.36 "Hg10 mi
6:54 pm34 °FSunny.9 mph46%30.35 "Hg10 mi
5:54 pm36 °FPartly sunny.16 mph42%30.34 "Hg10 mi
4:54 pm40 °FPartly sunny.9 mph36%30.32 "Hg10 mi
3:54 pm38 °FPassing clouds.14 mph39%30.32 "Hg10 mi
2:54 pm36 °FPartly sunny.14 mph42%30.33 "Hg10 mi
1:54 pm37 °FMostly cloudy.13 mph44%30.35 "Hg10 mi
12:54 pm36 °FPartly sunny.15 mph42%30.37 "Hg10 mi
11:54 am35 °FPassing clouds.14 mph44%30.37 "Hg10 mi
10:54 am34 °FSunny.12 mph42%30.37 "Hg10 mi
9:54 am32 °FSunny.8 mph50%30.37 "Hg10 mi
8:54 am29 °FSunny.13 mph58%30.36 "Hg10 mi
7:54 am27 °FSunny.8 mph66%30.35 "Hg10 mi
6:54 am24 °FClear.5 mph71%30.33 "Hg10 mi
5:54 am24 °FClear.7 mph71%30.32 "Hg10 mi
4:54 am27 °FClear.9 mph63%30.29 "Hg10 mi
3:54 am28 °FClear.12 mph61%30.28 "Hg10 mi
2:54 am27 °FClear.10 mph69%30.29 "Hg10 mi
1:54 am28 °FPartly cloudy.6 mph72%30.29 "Hg10 mi
12:54 am28 °FOvercast.7 mph72%30.28 "Hg10 mi
11:54 pm
Mon, Mar 18
28 °FPassing clouds.3 mph64%30.28 "Hg10 mi
10:54 pm29 °FClear.6 mph54%30.28 "Hg10 mi
9:54 pm30 °FPassing clouds.7 mph54%30.28 "Hg10 mi
Weather by CustomWeather, © 2019

See weather overview